Regional Weather Roundup
Issued by NWS

Home | Current Version | Previous Version | Graphics & Text | Print | Product List | Glossary On
Versions: 1 2 3 4 5 6 7 8 9 10 11 12 13 14 15 16 17 18 19 20 21 22 23 24 25 26 27 28 29 30 31 32 33 34 35 36 37 38 39 40 41 42 43 44 45 46 47 48 49 50
000
ASUS43 KBIS 021602
RWRND

NORTH DAKOTA REGIONAL WEATHER ROUNDUP
NATIONAL WEATHER SERVICE BISMARCK ND
1000 AM CST FRI DEC 02 2016

NOTE: "FAIR" INDICATES FEW OR NO CLOUDS BELOW 12,000 FEET WITH NO
SIGNIFICANT WEATHER AND/OR OBSTRUCTIONS TO VISIBILITY.


NDZ001>003-009>011-017-021700-
NORTHWEST NORTH DAKOTA

CITY           SKY/WX    TMP DP  RH WIND       PRES   REMARKS
WILLISTON      CLOUDY    28  23  81 SE3       30.18R
MINOT          FLURRIES  26  21  81 SE5       30.22R
MINOT AFB      CLOUDY    25  21  85 S6        30.21R WCI  18
$$

NDZ018>021-031>035-040>046-021700-
SOUTHWEST NORTH DAKOTA

CITY           SKY/WX    TMP DP  RH WIND       PRES   REMARKS
BISMARCK       CLOUDY    24  19  81 E5        30.26R WCI  18
DICKINSON      CLOUDY    24  22  91 S8        30.15S WCI  15
GARRISON         N/A     26  22  84 S9        30.22R WCI  17
HETTINGER ARPT CLOUDY    25  22  88 S3        30.19R
$$

NDZ004>008-012>016-024-026-027-054-021700-
NORTHEAST NORTH DAKOTA

CITY           SKY/WX    TMP DP  RH WIND       PRES   REMARKS
GRAND FORKS    CLOUDY    30  22  72 NW5       30.26R
GRND FRKS AFB  CLOUDY    30  23  75 NE2       30.25R
DEVILS LAKE    CLOUDY    29  22  75 W5        30.24R
$$

NDZ022-023-025-028>030-036>039-047>053-021700-
SOUTHEAST NORTH DAKOTA

CITY           SKY/WX    TMP DP  RH WIND       PRES   REMARKS
FARGO          CLOUDY    29  20  69 N10       30.26R WCI  20
JAMESTOWN      CLOUDY    27  20  75 N7        30.24R WCI  19
$$





USA.gov is the U.S. government's official web portal to all federal, state and local government web resources and services.